Regional Weather Roundup
Issued by NWS

Home | Current Version | Previous Version | Text Only | Print | Product List | Glossary Off
Versions: 1 2 3 4 5 6 7 8 9 10 11 12 13 14 15 16 17 18 19 20 21 22 23 24 25 26 27 28 29 30 31 32 33 34 35 36 37 38 39 40 41 42 43 44 45 46

000
ASUS43 KDMX 212007
RWRIA

WEATHER ROUNDUP FOR IOWA
NATIONAL WEATHER SERVICE DES MOINES IA
300 PM CDT TUE OCT 21 2014

NOTE: "FAIR" INDICATES FEW OR NO CLOUDS BELOW 12,000 FEET WITH NO
SIGNIFICANT WEATHER AND/OR OBSTRUCTIONS TO VISIBILITY.

* - THESE STATIONS ARE NOT NWS STATIONS...THUS NOT UNDER NWS
QUALITY CONTROL.  THEY ALSO DO NOT REPORT WEATHER SUCH
AS PRECIPITATION OR FOG.

IAZ001>003-012>014-020>022-031>034-043>046-212100-
   NORTHWEST IOWA

CITY           SKY/WX    TMP DP  RH WIND       PRES   REMARKS
CARROLL *      SUNNY     70  41  35 SE5G13    30.08S
CHEROKEE *     SUNNY     72  41  33 S8        30.04F
DENISON *      SUNNY     72  39  30 SE7G14    30.04F
LE MARS *      SUNNY     73  43  33 S15       30.02F
ORANGE CITY *  SUNNY     75  36  23 S14       30.03F
SHELDON *      SUNNY     73  41  31 S15       30.02F
SIOUX CITY     SUNNY     75  43  31 S12G17    30.02F
SPENCER        SUNNY     69  42  37 SE12      30.07F
STORM LAKE *   SUNNY     70  41  35 SE13      30.07F
$$

IAZ055>058-069>071-079>083-090>094-212100-
   SOUTHWEST IOWA

CITY           SKY/WX    TMP DP  RH WIND       PRES   REMARKS
ATLANTIC *     SUNNY     72  39  30 S8        30.06F
AUDUBON *      SUNNY     72  32  23 S5        30.09S
CLARINDA *     SUNNY     73  41  31 S9        30.09F
COUNCIL BLFS * SUNNY     73  43  33 SW10      30.05F
CRESTON *      SUNNY     70  41  35 SE7       30.09F
HARLAN  *      SUNNY     73  41  31 S8        30.09F
LAMONI         SUNNY     69  44  40 VRB3      30.10S
RED OAK *      SUNNY     72  41  33 SE7       30.07F
SHENANDOAH *   SUNNY     73  39  29 SE6       30.07F
$$

IAZ047>049-059>061-072>074-084-212100-
   CENTRAL IOWA

CITY           SKY/WX    TMP DP  RH WIND       PRES   REMARKS
AMES           SUNNY     65  43  44 E8        30.11F
ANKENY *       SUNNY     64  45  48 E9        30.11F
CHARITON *     SUNNY     66  45  45 E8        30.11F
DES MOINES     SUNNY     66  44  45 SE7       30.11F
GRINNELL*      SUNNY     63  41  45 E8        30.15S
KNOXVILLE *    SUNNY     64  43  45 E7        30.11F
MARSHALLTOWN   SUNNY     62  43  49 E9        30.13F
PELLA *        SUNNY     64  45  48 E7        30.14S
PERRY *          N/A     68  43  40 SE8       30.10S
$$

IAZ004>006-015-016-023>025-035-036-212100-
   NORTH CENTRAL IOWA

CITY           SKY/WX    TMP DP  RH WIND       PRES   REMARKS
ALGONA *       SUNNY     66  43  42 SE8G16    30.10F
CLARION *      SUNNY     64  41  42 E10       30.11F
ESTHERVILLE    SUNNY     66  41  40 S15       30.08F
FORT DODGE *   SUNNY     66  46  48 SE9       30.11S
MASON CITY     SUNNY     61  41  47 SE12G17   30.14F
FOREST CITY *  SUNNY     61  43  51 E9        30.12F
IOWA FALLS *     N/A     63  41  45 E9        30.13F
$$

IAZ007>011-017>019-026>030-037>042-050>054-066-212100-
   NORTHEAST IOWA

CITY           SKY/WX    TMP DP  RH WIND       PRES   REMARKS
CEDAR RAPIDS   SUNNY     60  42  51 E10       30.15F
CHARLES CITY * SUNNY     59  39  47 VRB6      30.16F
CLINTON *      SUNNY     55  39  54 E12       30.20S
DECORAH *      SUNNY     55  39  54 VRB7      30.16F
DUBUQUE        SUNNY     55  37  50 NE9       30.18S
MONTICELLO *   SUNNY     57  39  51 E7G15     30.17S
OELWEIN *      SUNNY     57  39  51 E9        30.17S
WATERLOO       SUNNY     60  41  49 SE9       30.15F
$$

IAZ064-065-067-068-078-212100-
   EAST CENTRAL IOWA

CITY           SKY/WX    TMP DP  RH WIND       PRES   REMARKS
DAVENPORT      SUNNY     57  36  45 E8        30.18S
IOWA CITY      SUNNY     60  41  49 E7        30.17F
MT. PLEASANT * SUNNY     61  41  48 NE9       30.15S
MUSCATINE *    SUNNY     61  39  44 NE8G15    30.16F
QUAD CITIES    SUNNY     59  38  45 E12       30.17S
$$

IAZ062-063-075>077-085>089-095>099-212100-
   SOUTHEAST IOWA

CITY           SKY/WX    TMP DP  RH WIND       PRES   REMARKS
BURLINGTON     SUNNY     61  43  51 NE10      30.15S
FAIRFIELD *    SUNNY     61  41  48 E7        30.14F
FORT MADISON *   N/A     64  45  48 CALM      30.15F HAZE
KEOKUK *       SUNNY     63  43  48 E8        30.14S
OSKALOOSA *      N/A     63  41  45 NE8       30.14F
CENTERVILLE *  SUNNY     64  45  48 SE6       30.14S
WASHINGTON *   SUNNY     63  41  45 E9        30.15S
$$

ABBREVIATIONS USED IN REMARKS
   TC - TEMPERATURES IN CELSIUS
  WCI - WIND CHILL INDEX
   HX - HEAT INDEX
  VSB - VISIBILITY
$$




USA.gov is the U.S. government's official web portal to all federal, state and local government web resources and services.